�������l�o���
Date,Time,MP-1(��Sv/h),MP-2(��Sv/h),MP-3(��Sv/h),MP-4(��Sv/h),MP-5(��Sv/h),MP-6(��Sv/h),MP-7(��Sv/h),MP-8(��Sv/h),����,����(m/s),���J
2018/02/25,00:00,0.883,1.490,0.927,1.746,1.203,0.485,0.865,0.836,�k��,7.0,��
2018/02/25,00:10,0.885,1.494,0.929,1.748,1.204,0.483,0.866,0.834,�k��,7.0,��
2018/02/25,00:20,0.884,1.493,0.928,1.746,1.202,0.484,0.866,0.836,�k��,8.1,��
2018/02/25,00:30,0.881,1.494,0.928,1.746,1.204,0.485,0.865,0.834,���k��,7.3,��
2018/02/25,00:40,0.883,1.490,0.928,1.748,1.202,0.484,0.866,0.835,���k��,7.5,��
2018/02/25,00:50,0.882,1.492,0.928,1.749,1.204,0.482,0.866,0.835,���k��,6.2,��
2018/02/25,01:00,0.883,1.492,0.927,1.747,1.204,0.484,0.867,0.835,�k��,5.6,��
2018/02/25,01:10,0.885,1.490,0.926,1.746,1.204,0.484,0.867,0.834,�k��,4.9,��
2018/02/25,01:20,0.885,1.491,0.928,1.744,1.204,0.484,0.866,0.834,�k��,4.2,��
2018/02/25,01:30,0.883,1.488,0.927,1.746,1.206,0.486,0.868,0.835,�k��,4.2,��
2018/02/25,01:40,0.883,1.490,0.929,1.744,1.205,0.486,0.865,0.835,�k��,4.3,��
2018/02/25,01:50,0.882,1.487,0.928,1.744,1.202,0.484,0.865,0.834,�k��,4.4,��
2018/02/25,02:00,0.882,1.488,0.928,1.745,1.205,0.486,0.867,0.833,�k��,4.0,��
2018/02/25,02:10,0.882,1.491,0.928,1.742,1.202,0.484,0.867,0.835,�k��,3.6,��
2018/02/25,02:20,0.882,1.491,0.927,1.744,1.204,0.486,0.867,0.835,�k�k��,2.8,��
2018/02/25,02:30,0.879,1.492,0.925,1.743,1.204,0.485,0.866,0.836,�k�k��,2.3,��
2018/02/25,02:40,0.882,1.489,0.926,1.746,1.203,0.484,0.866,0.833,�k,1.9,��
2018/02/25,02:50,0.881,1.489,0.926,1.741,1.204,0.483,0.868,0.834,�k,2.2,��
2018/02/25,03:00,0.881,1.488,0.926,1.744,1.202,0.484,0.865,0.833,�k,2.0,��
2018/02/25,03:10,0.881,1.489,0.926,1.746,1.203,0.485,0.865,0.836,�k,2.0,��
2018/02/25,03:20,0.880,1.490,0.926,1.743,1.202,0.484,0.866,0.835,�k,2.6,��
2018/02/25,03:30,0.882,1.490,0.927,1.747,1.202,0.484,0.864,0.833,�k�k��,2.3,��
2018/02/25,03:40,0.882,1.489,0.926,1.743,1.201,0.484,0.866,0.834,�k��,2.3,��
2018/02/25,03:50,0.881,1.489,0.923,1.744,1.201,0.483,0.864,0.833,�k��,1.9,��
2018/02/25,04:00,0.882,1.490,0.925,1.744,1.203,0.484,0.864,0.835,���k��,2.3,��
2018/02/25,04:10,0.882,1.491,0.925,1.743,1.201,0.484,0.864,0.835,���k��,3.1,��
2018/02/25,04:20,0.880,1.489,0.926,1.743,1.201,0.484,0.865,0.833,���k��,3.2,��
2018/02/25,04:30,0.882,1.490,0.925,1.743,1.202,0.483,0.867,0.833,���k��,3.3,��
2018/02/25,04:40,0.882,1.490,0.925,1.744,1.202,0.484,0.864,0.833,���k��,3.5,��
2018/02/25,04:50,0.880,1.488,0.925,1.744,1.201,0.483,0.865,0.835,���k��,3.2,��
2018/02/25,05:00,0.880,1.489,0.924,1.747,1.204,0.485,0.865,0.836,���k��,3.3,��
2018/02/25,05:10,0.882,1.489,0.927,1.743,1.203,0.484,0.865,0.834,���k��,3.7,��
2018/02/25,05:20,0.882,1.490,0.925,1.746,1.202,0.484,0.865,0.836,�k��,4.0,��
2018/02/25,05:30,0.881,1.489,0.925,1.745,1.201,0.484,0.866,0.832,�k��,5.4,��
2018/02/25,05:40,0.882,1.490,0.925,1.746,1.202,0.484,0.866,0.833,�k��,5.8,��
2018/02/25,05:50,0.881,1.489,0.927,1.745,1.202,0.484,0.866,0.835,�k��,6.2,��
2018/02/25,06:00,0.880,1.488,0.925,1.744,1.201,0.486,0.865,0.835,�k��,7.0,��
2018/02/25,06:10,0.882,1.491,0.925,1.745,1.202,0.483,0.865,0.833,�k��,6.8,��
2018/02/25,06:20,0.882,1.490,0.926,1.743,1.204,0.484,0.867,0.834,�k��,6.1,��
2018/02/25,06:30,0.880,1.489,0.927,1.744,1.202,0.484,0.865,0.833,�k��,6.5,��
2018/02/25,06:40,0.881,1.489,0.925,1.744,1.202,0.483,0.866,0.835,�k��,6.7,��
2018/02/25,06:50,0.881,1.491,0.926,1.744,1.203,0.484,0.867,0.835,�k��,7.0,��
2018/02/25,07:00,0.881,1.490,0.928,1.745,1.201,0.483,0.863,0.835,�k��,5.7,��
2018/02/25,07:10,0.880,1.492,0.928,1.743,1.198,0.483,0.865,0.833,�k��,5.8,��
2018/02/25,07:20,0.883,1.489,0.926,1.743,1.202,0.485,0.867,0.834,�k��,4.9,��
2018/02/25,07:30,0.882,1.492,0.926,1.744,1.202,0.484,0.867,0.834,�k�k��,5.8,��
2018/02/25,07:40,0.881,1.493,0.926,1.747,1.204,0.483,0.866,0.835,�k�k��,6.2,��
2018/02/25,07:50,0.880,1.491,0.925,1.745,1.204,0.485,0.867,0.835,�k�k��,5.3,��
2018/02/25,08:00,0.882,1.490,0.925,1.746,1.202,0.484,0.867,0.835,�k�k��,4.5,��
2018/02/25,08:10,0.884,1.492,0.928,1.744,1.202,0.484,0.865,0.834,�k,4.1,��
2018/02/25,08:20,0.882,1.493,0.928,1.746,1.205,0.484,0.867,0.836,�k�k��,4.3,��
2018/02/25,08:30,0.885,1.495,0.926,1.744,1.204,0.483,0.868,0.834,�k�k��,4.8,��
2018/02/25,08:40,0.884,1.492,0.928,1.748,1.202,0.486,0.868,0.837,�k�k��,4.0,��
2018/02/25,08:50,0.886,1.491,0.929,1.747,1.204,0.485,0.868,0.834,�k�k��,3.6,��
2018/02/25,09:00,0.885,1.494,0.931,1.750,1.204,0.483,0.868,0.836,�k,4.5,��
2018/02/25,09:10,0.885,1.495,0.929,1.748,1.207,0.483,0.867,0.836,�k,4.7,��
2018/02/25,09:20,0.882,1.494,0.928,1.748,1.206,0.485,0.867,0.835,�k�k��,5.3,��
2018/02/25,09:30,0.883,1.496,0.930,1.750,1.203,0.485,0.867,0.837,�k�k��,5.1,��
2018/02/25,09:40,0.883,1.493,0.929,1.749,1.204,0.485,0.866,0.836,�k��,5.3,��
2018/02/25,09:50,0.885,1.494,0.930,1.750,1.206,0.485,0.865,0.835,�k��,4.7,��
2018/02/25,10:00,0.883,1.492,0.928,1.751,1.203,0.486,0.866,0.836,�k��,4.7,��
2018/02/25,10:10,0.882,1.492,0.929,1.748,1.205,0.485,0.866,0.836,�k��,4.3,��
2018/02/25,10:20,0.885,1.494,0.930,1.748,1.203,0.484,0.864,0.834,�k��,4.7,��
2018/02/25,10:30,0.884,1.495,0.930,1.749,1.208,0.485,0.865,0.838,�k�k��,4.7,��
2018/02/25,10:40,0.886,1.494,0.928,1.752,1.204,0.486,0.864,0.836,�k�k��,4.8,��
2018/02/25,10:50,0.884,1.493,0.930,1.746,1.206,0.484,0.866,0.835,�k�k��,4.0,��
2018/02/25,11:00,0.886,1.492,0.929,1.751,1.207,0.486,0.865,0.836,�k��,3.8,��
2018/02/25,11:10,0.887,1.493,0.931,1.750,1.207,0.485,0.864,0.836,�k��,3.3,��
2018/02/25,11:20,0.889,1.493,0.928,1.749,1.209,0.486,0.863,0.837,�k��,3.5,��
2018/02/25,11:30,0.888,1.499,0.931,1.749,1.210,0.485,0.865,0.835,���k��,4.0,��
2018/02/25,11:40,0.886,1.494,0.932,1.749,1.209,0.486,0.866,0.837,�k��,3.8,��
2018/02/25,11:50,0.890,1.495,0.929,1.752,1.209,0.485,0.865,0.836,���k��,2.9,��
2018/02/25,12:00,0.886,1.497,0.931,1.750,1.207,0.486,0.865,0.838,��,2.5,��
2018/02/25,12:10,0.890,1.493,0.930,1.753,1.207,0.486,0.865,0.836,��,2.2,��
2018/02/25,12:20,0.888,1.496,0.930,1.751,1.207,0.487,0.865,0.836,���쓌,3.1,��
2018/02/25,12:30,0.889,1.495,0.930,1.751,1.206,0.485,0.866,0.837,���쓌,3.0,��
2018/02/25,12:40,0.888,1.493,0.929,1.754,1.208,0.485,0.865,0.836,��쓌,3.2,��
2018/02/25,12:50,0.889,1.496,0.928,1.752,1.208,0.485,0.865,0.837,�쓌,3.7,��
2018/02/25,13:00,0.886,1.499,0.932,1.752,1.205,0.486,0.866,0.836,�쓌,2.9,��
2018/02/25,13:10,0.888,1.497,0.932,1.753,1.206,0.485,0.866,0.835,�쓌,3.9,��
2018/02/25,13:20,0.888,1.496,0.932,1.751,1.207,0.487,0.864,0.837,���쓌,5.2,��
2018/02/25,13:30,0.887,1.495,0.930,1.751,1.209,0.486,0.867,0.835,�쓌,3.5,��
2018/02/25,13:40,0.889,1.494,0.930,1.753,1.210,0.486,0.865,0.838,�쓌,4.6,��
2018/02/25,13:50,0.887,1.496,0.931,1.751,1.209,0.486,0.867,0.837,��쓌,4.6,��
2018/02/25,14:00,0.890,1.497,0.930,1.753,1.212,0.487,0.866,0.838,��쓌,4.5,��
2018/02/25,14:10,0.886,1.496,0.932,1.748,1.211,0.487,0.864,0.837,��쓌,3.8,��
2018/02/25,14:20,0.888,1.497,0.932,1.751,1.209,0.487,0.866,0.837,��쓌,5.0,��
2018/02/25,14:30,0.888,1.497,0.933,1.752,1.209,0.487,0.864,0.837,�쓌,4.7,��
2018/02/25,14:40,0.889,1.495,0.932,1.751,1.212,0.488,0.865,0.837,��쓌,3.6,��
2018/02/25,14:50,0.889,1.498,0.931,1.752,1.211,0.488,0.867,0.837,���쓌,4.6,��
2018/02/25,15:00,0.889,1.497,0.932,1.750,1.210,0.486,0.867,0.835,�쓌,4.6,��
2018/02/25,15:10,0.889,1.496,0.931,1.751,1.210,0.487,0.867,0.838,��쓌,5.3,��
2018/02/25,15:20,0.891,1.498,0.933,1.752,1.209,0.487,0.867,0.838,��쓌,5.4,��
2018/02/25,15:30,0.888,1.497,0.932,1.752,1.210,0.488,0.867,0.838,��쓌,5.8,��
2018/02/25,15:40,0.888,1.500,0.932,1.751,1.212,0.487,0.867,0.837,��쓌,5.8,��
2018/02/25,15:50,0.888,1.497,0.932,1.752,1.211,0.487,0.866,0.836,��쓌,5.6,��
2018/02/25,16:00,0.889,1.495,0.933,1.750,1.212,0.486,0.868,0.837,��쓌,6.3,��
2018/02/25,16:10,0.886,1.494,0.933,1.752,1.211,0.487,0.867,0.836,��쓌,6.0,��
2018/02/25,16:20,0.889,1.497,0.932,1.753,1.210,0.487,0.868,0.839,��쓌,5.1,��
2018/02/25,16:30,0.888,1.500,0.933,1.749,1.212,0.487,0.866,0.837,��,5.8,��
2018/02/25,16:40,0.886,1.499,0.930,1.753,1.210,0.486,0.865,0.835,��쓌,5.0,��
2018/02/25,16:50,0.888,1.498,0.933,1.751,1.211,0.488,0.867,0.836,��쓌,5.6,��
2018/02/25,17:00,0.887,1.499,0.930,1.753,1.209,0.489,0.867,0.838,��쓌,4.8,��
2018/02/25,17:10,0.888,1.498,0.932,1.753,1.211,0.487,0.869,0.836,��쓌,5.5,��
2018/02/25,17:20,0.887,1.494,0.932,1.753,1.210,0.486,0.867,0.835,��,4.3,��
2018/02/25,17:30,0.886,1.501,0.931,1.751,1.209,0.489,0.866,0.836,��,5.0,��
2018/02/25,17:40,0.887,1.498,0.931,1.750,1.210,0.487,0.866,0.835,��,4.6,��
2018/02/25,17:50,0.886,1.498,0.932,1.751,1.210,0.487,0.866,0.837,��,5.0,��
2018/02/25,18:00,0.887,1.498,0.931,1.751,1.209,0.487,0.869,0.835,��,5.2,��
2018/02/25,18:10,0.889,1.499,0.931,1.751,1.209,0.487,0.869,0.837,��,5.5,��
2018/02/25,18:20,0.888,1.497,0.930,1.749,1.210,0.486,0.869,0.835,��,6.2,��
2018/02/25,18:30,0.888,1.497,0.932,1.751,1.208,0.485,0.867,0.835,��,6.2,��
2018/02/25,18:40,0.886,1.498,0.931,1.749,1.209,0.487,0.867,0.838,��,6.3,��
2018/02/25,18:50,0.887,1.495,0.930,1.748,1.210,0.488,0.866,0.837,��,5.9,��
2018/02/25,19:00,0.886,1.494,0.930,1.750,1.210,0.487,0.868,0.836,��,6.4,��
2018/02/25,19:10,0.885,1.498,0.931,1.752,1.209,0.488,0.867,0.835,��,6.0,��
2018/02/25,19:20,0.886,1.495,0.929,1.752,1.207,0.487,0.868,0.834,��,6.2,��
2018/02/25,19:30,0.885,1.497,0.929,1.752,1.209,0.486,0.868,0.835,��,6.0,��
2018/02/25,19:40,0.885,1.496,0.930,1.752,1.208,0.487,0.867,0.835,��,6.1,��
2018/02/25,19:50,0.886,1.496,0.929,1.748,1.208,0.487,0.866,0.836,��,6.8,��
2018/02/25,20:00,0.885,1.495,0.927,1.751,1.208,0.486,0.868,0.836,��,6.4,��
2018/02/25,20:10,0.882,1.496,0.931,1.751,1.208,0.484,0.865,0.836,��,6.2,��
2018/02/25,20:20,0.883,1.497,0.931,1.751,1.207,0.486,0.866,0.834,��,6.2,��
2018/02/25,20:30,0.884,1.495,0.929,1.750,1.209,0.486,0.865,0.833,��,4.9,��
2018/02/25,20:40,0.887,1.495,0.931,1.750,1.207,0.486,0.867,0.835,��쐼,3.1,��
2018/02/25,20:50,0.888,1.495,0.930,1.748,1.211,0.487,0.866,0.835,�쐼,2.3,��
2018/02/25,21:00,0.887,1.496,0.932,1.750,1.209,0.485,0.867,0.837,���쐼,2.0,��
2018/02/25,21:10,0.885,1.498,0.929,1.750,1.206,0.484,0.865,0.837,���쐼,2.0,��
2018/02/25,21:20,0.886,1.497,0.931,1.748,1.208,0.486,0.867,0.835,��,1.7,��
2018/02/25,21:30,0.886,1.494,0.930,1.749,1.205,0.487,0.867,0.837,��,2.6,��
2018/02/25,21:40,0.885,1.494,0.931,1.751,1.209,0.486,0.866,0.835,��,2.6,��
2018/02/25,21:50,0.888,1.496,0.930,1.750,1.208,0.487,0.865,0.835,��,2.6,��
2018/02/25,22:00,0.886,1.494,0.931,1.751,1.212,0.486,0.866,0.836,���쐼,2.3,��
2018/02/25,22:10,0.886,1.494,0.929,1.751,1.207,0.486,0.864,0.836,���쐼,1.5,��
2018/02/25,22:20,0.887,1.493,0.931,1.750,1.206,0.486,0.866,0.836,��,1.9,��
2018/02/25,22:30,0.886,1.493,0.930,1.747,1.209,0.487,0.866,0.836,���k��,1.4,��
2018/02/25,22:40,0.886,1.495,0.932,1.751,1.209,0.486,0.867,0.837,���쐼,1.1,��
2018/02/25,22:50,0.887,1.497,0.932,1.750,1.210,0.487,0.867,0.835,�쐼,0.9,��
2018/02/25,23:00,0.886,1.494,0.932,1.750,1.208,0.485,0.866,0.836,-,CALM,��
2018/02/25,23:10,0.887,1.496,0.931,1.752,1.207,0.484,0.867,0.835,-,CALM,��
2018/02/25,23:20,0.888,1.495,0.929,1.752,1.206,0.487,0.868,0.835,�k��,0.8,��
2018/02/25,23:30,0.886,1.495,0.931,1.751,1.209,0.485,0.868,0.836,�k��,1.7,��
2018/02/25,23:40,0.887,1.494,0.929,1.750,1.209,0.487,0.869,0.836,���k��,2.8,��
2018/02/25,23:50,0.886,1.495,0.930,1.748,1.209,0.486,0.866,0.837,�k��,3.3,��
